Cotronei Caccuri

Villese, Saro Bellé: ” Bentornato Scopelliti”

Il presidente della Villese, Saro Bellé, annuncia il ritorno in neroverde del centrocampista Luca Scopelliti, pronto a dare il suo contributo alla causa della formazione di mister Cotronei per centrare l'obiettivo salvezza.     Saro Bellé: "Abbiamo...

Villese, ritrovati punti e serenità

In casa Villese, è tornato il sereno dopo l'importante successo casalingo, maturato nello scontro diretto con il San Gaetano Catanoso. Tre punti preziosi per i ragazzi di mister Cotronei. Una vittoria utile per ritrovare...

Villese, Cotronei: “Squadra giovane che può far bene “

In Prima Categoria, debutto per la Villese, impegnata questo pomeriggio sul campo dell'Accademy Taurianova. La società neroverde, quest'anno ha come obiettivo quello di centrare una salvezza meno sofferta rispetto a quella della scorsa stagione....

Il Locri chiude la pratica Cotronei già nel primo tempo

Partita a senso unico quella tra Locri e Cotronei. In vista Dell 'andata dei quarti di finale con il Barletta mercoledì al comunale, mister Mancini non tralascia nulla al caso e mette in campo...

ReggioMed – Cotronei 3-2, reggini a -2 dal secondo posto

Seconda vittoria consecutiva per la Reggiomediterranea di mister Misiti, che dà seguito al prezioso successo ottenuto mercoledì sul campo della Morrone. Gli amaranto si impongono per 3 a 2 a discapito del Cotronei, venuto...
DataCasaRisultatiTrasfertaOra
2022-05-01 14:30:0001/05/220 - 2 14:30:0014:30
2022-04-24 14:30:0024/04/223 - 0 14:30:0014:30
2022-04-10 14:30:0010/04/221 - 3 14:30:0014:30
2022-04-03 14:30:0003/04/224 - 0 14:30:0014:30
2022-03-27 14:30:0027/03/223 - 1 14:30:0014:30
2022-03-20 14:30:0020/03/220 - 2 14:30:0014:30
2022-03-13 14:30:0013/03/225 - 0 14:30:0014:30
2022-03-06 14:30:0006/03/221 - 1 14:30:0014:30
2022-03-02 14:30:0002/03/222 - 3 14:30:0014:30
2022-02-27 14:30:0027/02/221 - 0 14:30:0014:30
2022-02-20 14:30:0020/02/221 - 1 14:30:0014:30
2022-02-13 14:30:0013/02/223 - 2 14:30:0014:30
2022-02-06 14:30:0006/02/222 - 1 14:30:0014:30
2022-01-30 14:30:0030/01/222 - 1 14:30:0014:30
2022-01-23 14:30:0023/01/220 - 3 14:30:0014:30
2022-01-05 14:30:0005/01/222 - 3 14:30:0014:30
2021-12-19 14:30:0019/12/214 - 2 14:30:0014:30
2021-12-12 14:30:0012/12/211 - 1 14:30:0014:30
2021-12-05 14:30:0005/12/210 - 8 14:30:0014:30
2021-11-28 14:30:0028/11/214 - 1 14:30:0014:30
2021-11-21 14:30:0021/11/210 - 0 14:30:0014:30
2021-11-14 14:30:0014/11/211 - 2 14:30:0014:30
2021-11-07 14:30:0007/11/211 - 3 14:30:0014:30
2021-10-31 14:30:0031/10/211 - 2 14:30:0014:30
2021-10-24 14:30:0024/10/213 - 1 14:30:0014:30
2021-10-17 14:30:0017/10/213 - 1 14:30:0014:30
2021-10-10 14:30:0010/10/211 - 2 14:30:0014:30
2021-10-03 14:30:0003/10/212 - 0 14:30:0014:30
2021-09-26 15:30:0026/09/213 - 2 15:30:0015:30
2021-09-19 15:30:0019/09/210 - 4 15:30:0015:30
2021-02-21 15:00:0021/02/21- 15:00:0015:00
2021-02-14 15:00:0014/02/21- 15:00:0015:00
2021-02-07 15:00:0007/02/21- 15:00:0015:00
2021-01-31 15:00:0031/01/21- 15:00:0015:00
2021-01-24 15:00:0024/01/21- 15:00:0015:00
2021-01-17 15:00:0017/01/21- 15:00:0015:00
2021-01-10 15:00:0010/01/21- 15:00:0015:00
2021-01-06 15:00:0006/01/21- 15:00:0015:00
2020-12-20 15:00:0020/12/20- 15:00:0015:00
2020-12-13 15:00:0013/12/20- 15:00:0015:00
2020-11-29 15:00:0029/11/20- 15:00:0015:00
2020-11-25 15:00:0025/11/20- 15:00:0015:00
2020-11-22 15:00:0022/11/20- 15:00:0015:00
2020-11-15 15:00:0015/11/20- 15:00:0015:00
2020-11-08 15:00:0008/11/20- 15:00:0015:00
2020-11-01 15:00:0001/11/20- 15:00:0015:00
2020-10-25 15:00:0025/10/201 - 1 15:00:0015:00
2020-10-21 15:00:0021/10/202 - 2 15:00:0015:00
2020-10-18 15:00:0018/10/202 - 1 15:00:0015:00
2020-10-11 15:00:0011/10/200 - 4 15:00:0015:00
2020-10-04 15:00:0004/10/201 - 1 15:00:0015:00
2020-09-27 15:00:0027/09/201 - 3 15:00:0015:00
2020-04-19 15:30:0019/04/20- 15:30:0015:30
2020-04-05 15:30:0005/04/20- 15:30:0015:30
2020-03-29 15:30:0029/03/20- 15:30:0015:30
2020-03-22 14:30:0022/03/20- 14:30:0014:30
2020-03-15 14:30:0015/03/20- 14:30:0014:30
2020-03-08 14:30:0008/03/20- 14:30:0014:30
2020-03-01 14:30:0001/03/203 - 1 14:30:0014:30
2020-02-23 14:30:0023/02/203 - 0 14:30:0014:30
2020-02-16 14:30:0016/02/200 - 0 14:30:0014:30
2020-02-09 14:30:0009/02/204 - 1 14:30:0014:30
2020-02-02 14:30:0002/02/200 - 2 14:30:0014:30
2020-01-26 14:30:0026/01/202 - 0 14:30:0014:30
2020-01-19 14:30:0019/01/202 - 5 14:30:0014:30
2020-01-12 14:30:0012/01/203 - 1 14:30:0014:30
2020-01-05 14:30:0005/01/201 - 6 14:30:0014:30
2019-12-15 14:30:0015/12/190 - 1 14:30:0014:30
2019-12-08 14:30:0008/12/191 - 1 14:30:0014:30
2019-12-01 14:30:0001/12/191 - 2 14:30:0014:30
2019-11-24 14:30:0024/11/192 - 0 14:30:0014:30
2019-11-17 14:30:0017/11/193 - 2 14:30:0014:30
2019-11-10 14:30:0010/11/191 - 0 14:30:0014:30
2019-11-03 14:30:0003/11/190 - 1 14:30:0014:30
2019-10-27 14:30:0027/10/191 - 0 14:30:0014:30
2019-10-20 15:30:0020/10/192 - 1 15:30:0015:30
2019-10-13 15:30:0013/10/191 - 2 15:30:0015:30
2019-10-06 15:30:0006/10/193 - 1 15:30:0015:30
2019-09-29 15:30:0029/09/191 - 4 15:30:0015:30
2019-09-22 15:30:0022/09/193 - 1 15:30:0015:30
2019-09-15 15:30:0015/09/193 - 1 15:30:0015:30
2019-09-08 15:30:0008/09/192 - 0 15:30:0015:30
2019-04-28 16:00:0028/04/191 - 0 16:00:0016:00
2019-04-07 16:00:0007/04/192 - 3 16:00:0016:00
2019-03-31 15:00:0031/03/194 - 0 15:00:0015:00
2019-03-24 15:00:0024/03/191 - 4 15:00:0015:00
2019-03-17 15:00:0017/03/193 - 1 15:00:0015:00
2019-03-10 15:00:0010/03/192 - 2 15:00:0015:00
2019-03-03 15:00:0003/03/192 - 2 15:00:0015:00
2019-02-24 14:30:0024/02/193 - 1 14:30:0014:30
2019-02-17 14:30:0017/02/191 - 0 14:30:0014:30
2019-02-10 14:30:0010/02/194 - 1 14:30:0014:30
2019-02-03 14:30:0003/02/192 - 1 14:30:0014:30
2019-01-27 14:30:0027/01/191 - 0 14:30:0014:30
2019-01-20 14:30:0020/01/192 - 1 14:30:0014:30
2019-01-11 14:30:0011/01/190 - 1 14:30:0014:30
2019-01-06 14:30:0006/01/192 - 0 14:30:0014:30
2018-12-16 14:30:0016/12/181 - 0 14:30:0014:30
2018-12-09 14:30:0009/12/182 - 1 14:30:0014:30
2018-12-02 14:30:0002/12/181 - 2 14:30:0014:30
2018-11-25 14:30:0025/11/181 - 1 14:30:0014:30
2018-11-18 14:30:0018/11/180 - 0 14:30:0014:30
2018-11-11 14:30:0011/11/183 - 0 14:30:0014:30
2018-11-04 14:30:0004/11/180 - 3 14:30:0014:30
2018-10-28 14:30:0028/10/181 - 0 14:30:0014:30
2018-10-21 15:30:0021/10/181 - 0 15:30:0015:30
2018-10-14 15:30:0014/10/180 - 1 15:30:0015:30
2018-10-07 15:30:0007/10/182 - 0 15:30:0015:30
2018-09-30 15:30:0030/09/184 - 0 15:30:0015:30
2018-09-23 15:30:0023/09/180 - 3 15:30:0015:30
2018-09-16 15:30:0016/09/183 - 2 15:30:0015:30
2018-09-09 15:30:0009/09/180 - 0 15:30:0015:30
2018-04-29 16:00:0029/04/182 - 1 16:00:0016:00
2018-04-22 16:00:0022/04/184 - 2 16:00:0016:00
2018-04-15 16:00:0015/04/181 - 0 16:00:0016:00
2018-04-08 16:00:0008/04/180 - 1 16:00:0016:00
2018-03-18 15:00:0018/03/181 - 0 15:00:0015:00
2018-03-11 15:00:0011/03/181 - 0 15:00:0015:00
2018-03-04 15:00:0004/03/181 - 0 15:00:0015:00
2018-02-25 14:30:0025/02/180 - 0 14:30:0014:30
2018-02-18 14:30:0018/02/182 - 0 14:30:0014:30
2018-02-11 14:30:0011/02/183 - 3 14:30:0014:30
2018-02-04 14:30:0004/02/183 - 2 14:30:0014:30
2018-01-28 14:30:0028/01/182 - 1 14:30:0014:30
2018-01-21 14:30:0021/01/180 - 0 14:30:0014:30
2018-01-14 14:30:0014/01/183 - 2 14:30:0014:30
2018-01-07 14:30:0007/01/181 - 0 14:30:0014:30
2017-12-17 14:30:0017/12/171 - 0 14:30:0014:30
2017-12-10 14:30:0010/12/172 - 3 14:30:0014:30
2017-12-03 14:30:0003/12/171 - 1 14:30:0014:30
2017-11-26 14:30:0026/11/172 - 0 14:30:0014:30
2017-11-19 14:30:0019/11/170 - 1 14:30:0014:30
2017-11-12 14:30:0012/11/171 - 0 14:30:0014:30
2017-11-05 14:30:0005/11/170 - 2 14:30:0014:30
2017-10-29 14:30:0029/10/172 - 0 14:30:0014:30
2017-10-22 15:30:0022/10/172 - 3 15:30:0015:30
2017-10-15 15:30:0015/10/172 - 1 15:30:0015:30
2017-10-08 15:30:0008/10/173 - 1 15:30:0015:30
2017-10-01 15:30:0001/10/171 - 3 15:30:0015:30
2017-09-24 15:30:0024/09/173 - 1 15:30:0015:30
2017-09-17 15:30:0017/09/170 - 2 15:30:0015:30
2017-09-10 15:30:0010/09/170 - 1 15:30:0015:30